Location: Bailleul
(50.3375°N, 2.8513°E)
Time: 09:55:51
(UTC+00:00)

Cosmos 1025 Rocket - Pass Details

Date: 16 June 2021
Orbit: 593 x 619 km, 82.5° (Epoch: 27 July)

Event Time Altitude Azimuth Distance (km) Brightness Sun altitude
Exits shadow 21:09:59 - 166° (SSE) 2,090 5.2 -8.3°
Reaches altitude 10° 21:10:16 10° 165° (SSE) 1,978 5.1 -8.3°
Maximum altitude 21:14:26 44° 93° (E) 854 3.5 -8.7°
Drops below altitude 10° 21:18:37 10° 22° (NNE) 1,983 6.1 -9.1°
Sets 21:20:54 0° 16° (NNE) 2,889 7.1 -9.3°
